Location: Sevilla
(37.3933°N, 5.9839°W)
Time: 05:46:01
(UTC+02:00)

Transit 2A - Pass Details

Date: 27 June 2024
Orbit: 591 x 960 km, 66.7° (Epoch: 15 July)

Event Time Altitude Azimuth Distance (km) Brightness Sun altitude
Rises 17:46:26 0° 264° (W) 3,100 9.9 45.3°
Reaches altitude 10° 17:50:06 10° 292° (WNW) 2,272 9.3 44.6°
Maximum altitude 17:52:26 13° 319° (NW) 2,133 8.9 44.1°
Drops below altitude 10° 17:54:52 10° 346° (NNW) 2,391 8.8 43.6°
Sets 17:58:59 0° 13° (NNE) 3,422 9.2 42.8°
